FENGYUN 1C DEB, 30988

Orbit data source: Space-Track

FENGYUN 1C DEB, 30988 is space debris in SSO originally from a launch on Mon, 10 May 1999 UTC launched from the Taiyaun Space Center, China (TSC). Fengyun 1C debris stems from the Chinese weather satellite Fengyun-1C, which was intentionally destroyed by a Chinese anti-satellite missile in 2007. This event dramatically increased the amount of space debris, with thousands of trackable fragments posing hazards to satellites and human spaceflight. The Fengyun 1C debris cloud has become a focal point in discussions about space sustainability and the need for international regulations to prevent the creation of new debris.

Loading next visibility...
Identifier
30988, 1999-025BCE
Orbit
SSO
Country
Flag of CNCN / PRC
Related business
Manufacturer
Unknown
Mission
Spacecraft
Bus & Motor
Unknown
Mass
Unknown
Launch date (UTC)
1999-05-10 (27 years ago)
Launch vehicle
Unknown
Launch site
Taiyaun Space Center, China (TSC)
Object type
Payload
Rocket body
Debris
Shape & HBR
Unknown shape, 0.1 m
Radar Cross Section
Small (<0.1 m²)

Expand to show TLE details & history
Last TLE update: 9 hours ago

TLE from 9 hours ago
0 FENGYUN 1C DEB
1 30988U 99025BCE 26168.22584773  .00134591  00000-0  16449-2 0  9993
2 30988  98.5483 151.8766 0057416  51.4518 309.1860 15.57953832 24122
Epoch: 2026-06-17T05:25Z
TLE epoch observation values (Epoch: 2026-06-17T05:25:13.243Z)
Latitude
-0.00002°
Longitude
165.08485°
Altitude
372.249 km
Speed
7.7 km/s
True Right ascension
10h 07m 30s
True Declination
0° 00' 00"
Sunlit
Object was in daylight at epoch
Visualization orbit readout
Latitude
Unknown
Longitude
Unknown
Altitude
Unknown
Speed
Unknown
Apparent Right ascension
Unknown
Apparent Declination
Unknown
Sunlit
N/A
Visualization observer readout
Local Sidereal Time
00:57:02
Azimuth
Unknown
Elevation
Unknown
Doppler factor
Unknown
Orbital elements
Apogee altitude
429.412 km
Perigee altitude
351.685 km
Semi-major axis
6,768.685 km
Eccentricity
0.00574
Inclination
98.5483°
RAAN
151.8766°
Arg. of periapsis
51.4518°
True anomaly
308.67372°
Mean anomaly
309.186°
Eccentric anomaly
308.93009°
Mean motion
3.8975 °/min
Orbital period
92.37 mins
BSTAR
0.0016449
Loading maneuver chart data...
Computing Atmospheric mass density...

Documentation

Showing up to 5 results
|